[TLELIST] Archives

 

Current TLEs <25 FEBRUARY 2005>

February 25th 2005 PST

HST 1 20580U 90037B 05055.85461352 .00001021 00000-0 67863-4 0 2927 2 20580 28.4679 280.6578 0003910 162.6571 197.4142 14.99608149613368 ISS 1 25544U 98067A 05055.92056713 .00015371 00000-0 12846-3 0 8875 2 25544 51.6473 115.1124 0004333 129.4363 224.4745 15.70238083358027 CHANDRA 1 25867U 99040B 05056.75000000 .00000000 00000-0 00000-0 0 7592 2 25867 56.0464 105.9339 5642534 300.9191 353.1344 0.37796593 1213 These 2-Line Elements (TLEs) are from US Space Command courtesy TS Kelso's Celestial BB ...Continue Reading

Current TLEs <23 FEBRUARY 2005>

February 23rd 2005 PST

HST 1 20580U 90037B 05053.92456635 .00001151 00000-0 78246-4 0 2933 2 20580 28.4684 293.2266 0003952 142.1405 217.9462 14.99605659613077 ISS 1 25544U 98067A 05053.77556910 .00065121 00000-0 52620-3 0 8737 2 25544 51.6486 126.0641 0004356 124.1468 336.5359 15.70205629357697 CHANDRA 1 25867U 99040B 05054.16666667 .00000000 00000-0 00000-0 0 7581 2 25867 56.0609 105.9765 5637950 301.0087 1.3807 0.37787249 1213 These 2-Line Elements (TLEs) are from US Space Command courtesy TS Kelso's Celestial BB ...Continue Reading

Current TLEs <22 FEBRUARY 2005>

February 22nd 2005 PST

HST 1 20580U 90037B 05052.92626505 .00001167 00000-0 79477-4 0 3077 2 20580 28.4686 299.7292 0003920 132.0225 228.0698 14.99603790612923 ISS 1 25544U 98067A 05052.92908565 .00027672 00000-0 22778-3 0 8662 2 25544 51.6462 130.3804 0004336 122.7223 229.9632 15.70163039357553 CHANDRA 1 25867U 99040B 05054.16666667 .00000000 00000-0 00000-0 0 7581 2 25867 56.0609 105.9765 5637950 301.0087 1.3807 0.37787249 1213 These 2-Line Elements (TLEs) are from US Space Command courtesy TS Kelso's Celestial BB ...Continue Reading

Current TLEs <18 FEBRUARY 2005>

February 18th 2005 PST

HST 1 20580U 90037B 05048.93304580 .00001106 00000-0 74667-4 0 2819 2 20580 28.4691 325.7412 0003773 90.2734 269.8285 14.99595451612322 ISS 1 25544U 98067A 05048.80946877 .00032982 00000-0 27299-3 0 8384 2 25544 51.6449 151.4096 0004644 111.7909 340.4844 15.69930314356915 CHANDRA 1 25867U 99040B 05046.16666667 .00000000 00000-0 00000-0 0 7560 2 25867 56.0425 106.0589 5644729 301.2484 352.2422 0.37801435 1215 These 2-Line Elements (TLEs) are from US Space Command courtesy TS Kelso's Celestial BB ...Continue Reading

Current TLEs <15 FEBRUARY 2005>

February 15th 2005 PST

HST 1 20580U 90037B 05041.94484997 .00001138 00000-0 77267-4 0 2739 2 20580 28.4690 11.2594 0003380 12.5475 347.5211 14.99582440611272 ISS 1 25544U 98067A 05041.93817249 .00023875 00000-0 19203-3 0 7893 2 25544 51.6459 186.5103 0009501 84.6766 9.4269 15.70771043355837 CHANDRA 1 25867U 99040B 05040.95833333 .00000000 00000-0 00000-0 0 7545 2 25867 56.0057 106.2209 5635548 301.2653 3.2663 0.37788414 1215 These 2-Line Elements (TLEs) are from US Space Command courtesy TS Kelso's Celestial BBS or from NASA/GSFC Orbital Inf ...Continue Reading

Current TLEs <07 FEBRUARY 2005>

February 7th 2005 PST

HST 1 20580U 90037B 05037.21946292 .00000677 00000-0 40646-4 0 2698 2 20580 28.4685 42.0377 0003598 326.9340 33.1024 14.99574833610569 ISS 1 25544U 98067A 05038.30827535 .00009964 00000-0 83655-4 0 7615 2 25544 51.6442 205.0566 0009614 74.3125 0.8348 15.70604528355262 CHANDRA 1 25867U 99040B 05035.66666667 .00000000 00000-0 00000-0 0 7529 2 25867 56.0109 106.2266 5632383 301.5804 2.6705 0.37789754 1219 These 2-Line Elements (TLEs) are from US Space Command courtesy TS Kelso's Celestial BB ...Continue Reading

Current TLEs <04 FEBRUARY 2005>

February 4th 2005 PST

HST 1 20580U 90037B 05035.82180959 .00000683 00000-0 41150-4 0 2680 2 20580 28.4684 51.1395 0003601 312.3785 47.6498 14.99573419610357 ISS 1 25544U 98067A 05036.15862269 .00010384 00000-0 87123-4 0 7453 2 25544 51.6460 216.0383 0009701 66.5970 86.0456 15.70560986354926 CHANDRA 1 25867U 99040B 05035.66666667 .00000000 00000-0 00000-0 0 7529 2 25867 56.0109 106.2266 5632383 301.5804 2.6705 0.37789754 1219 These 2-Line Elements (TLEs) are from US Space Command courtesy TS Kelso's Celestial BB ...Continue Reading

Current TLEs <02 FEBRUARY 2005>

February 2nd 2005 PST

HST 1 20580U 90037B 05032.89339138 .00000714 00000-0 43544-4 0 2627 2 20580 28.4686 70.2202 0003634 277.7464 82.2724 14.99570614609913 ISS 1 25544U 98067A 05033.73170475 .00011429 00000-0 95591-4 0 7263 2 25544 51.6442 228.4331 0009614 59.3125 42.5062 15.70510245354542 CHANDRA 1 25867U 99040B 05033.00000000 .00000000 00000-0 00000-0 0 7517 2 25867 55.9704 106.2755 5635811 301.6587 359.5676 0.37799369 1213 These 2-Line Elements (TLEs) are from US Space Command courtesy TS Kelso's Celestial BB ...Continue Reading

Current TLEs <31 JANUARY 2005>

January 31st 2005 PST

HST 1 20580U 90037B 05031.22951557 .00000681 00000-0 40914-4 0 2595 2 20580 28.4684 81.0605 0003726 258.3048 101.7126 14.99568685609663 ISS 1 25544U 98067A 05031.70004998 .00010549 00000-0 88806-4 0 7111 2 25544 51.6454 238.8101 0009520 51.9874 75.6413 15.70458718354228 CHANDRA 1 25867U 99040B 05030.37500000 .00000000 00000-0 00000-0 0 7508 2 25867 55.9512 106.3454 5634826 301.7074 2.1437 0.37795361 1218 These 2-Line Elements (TLEs) are from US Space Command courtesy TS Kelso's Celestial BB ...Continue Reading

Current TLEs <27 JANUARY 2005>

January 27th 2005 PST

HST 1 20580U 90037B 05026.57065544 .00000970 00000-0 63893-4 0 2568 2 20580 28.4683 111.4048 0003974 211.7236 148.3110 14.99564227608968 ISS 1 25544U 98067A 05027.68962031 .00018886 00000-0 15549-3 0 6859 2 25544 51.6462 259.2941 0009529 37.7000 81.7769 15.70381285353593 CHANDRA 1 25867U 99040B 05027.87500000 .00000000 00000-0 00000-0 0 7497 2 25867 55.9682 106.3863 5631864 301.8028 21.7197 0.37789106 1219 These 2-Line Elements (TLEs) are from US Space Command courtesy TS Kelso's Celestial BB ...Continue Reading
  • This mailing list is a public mailing list - anyone may join or leave, at any time.
  • This mailing list is announce-only.

International Space Station (ISS) / Hubble Space Telescope (HST) / Chandra X-Ray Observatory Orbital Data via EMAIL

Privacy Policy:

Private list